Aeroporto :
LOGIN :

Iscrizione | Disclaimer

   EN    FR    IT 

 










Sommario :    VFR   VFR Marginale   IFR   IFR Intensivo   IFR Molto Intensivo
Visibilità : 
Base nubi : 
>= 8 km
>= 3000ft
5 / 8 km
1000 / 3000 ft
1500m / 5 km
500 / 1000 ft
800 / 1500m
200 / 500 ft
< 800m
< 200 ft
Simboli :   Temporali  Nebbia  Neve Forte  Precipitazioni Forti  Vento > 20 kt
SIGMETs :   Varie  Temporali  Ghiacco  Turbolenza  Onda orograficha  Ceneri Vulcaniche






- Altitudine del aeroporto : 80 ft
- Codice IATA : LPL


EGGP - Liverpool John Lennon

ULTIMO METAR :
  • 281920Z AUTO 13005KT 090V170 5000 HZ NCD 22/11 Q1029

METARs OBSOLETI :
  • 281850Z AUTO 13005KT 100V160 9999 FEW033/// 22/10 Q1029
  • 281820Z AUTO 11006KT 090V150 9999 NCD 24/09 Q1029
  • 281750Z AUTO 11006KT 070V130 9999 FEW033/// 24/09 Q1030
  • 281720Z 11007KT 080V150 CAVOK 24/09 Q1030
  • 281650Z 10007KT CAVOK 24/09 Q1030

TAF AMD TAF EGGP
Valido dal 28 a 18 ore il 29 a 18 ore UTC


281847Z 2818/2918 15006KT CAVOK
PROB30
TEMPO 2818/2906 8000
ATIS : +44 151 907 2000 (option 5 or ext 5150)
Met : +44 871 750 5150



MetMap, La meteo Aeronautica in un colpo d'occhio ! - Copyright ORBIFLY Dicembre 2007 - Disclaimer

ORBIFLY MET'MAP TEAM :

Programmazione e sviluppo : Alexandra Zaïnal
Concezione : Baudouin d'Aumeries
Aiuto per la programmazione : Marc-Olivier Méhu
Supporto tecnico e logistico : Manuel Goepfert
Aiuto per la traduzione : Arnaldo La Scala

Contatto : metmap@orbifly.com




FONTI E CREDITI :

   NOAA